Date String (YYYY-MM-DD hh:mm:ss) UTC,Instrument flags,absolute air pressure of the measurement (hPa),sample flow rate (lpm),inlet stack bypass flow (lpm),air temperature of the measurement (°C),ambient temperature measured by the external sensor (°C),aerosol sample conditioner tube jacket temperature (°C),OPC LED temperature (°C),internal box temperature (°C),relative humidity of the measurement (%),span deviation,mass concentration of particles derived from Lorenz-Mie calculation of OPC scattering (μg/m³),mass concentration of particles derived from Lorenz-Mie calculation of OPC scattering (μg/m³),mass concentration of particles derived from Lorenz-Mie calculation of OPC scattering (μg/m³)
DateTimeUTC,F1_M11,P_M11,Q1_M11,Q2_M11,T1_M11,T2_M11,T3_M11,T4_M11,T5_M11,U1_M11,ZSPAN_M11,X0_M11,X2_M11,X1_M11
2024-04-01 18:00:00,SystemResetWarning,0822.0,4.99,000.00,020.8,020.0,000.0,029.3,022.5,25.8,0000.0,0006.52,0003.53,0003.40
2024-04-01 18:01:00,SystemResetWarning,0822.1,4.99,000.00,020.8,020.0,000.0,029.3,022.5,25.9,0000.0,0006.45,0003.48,0003.34
2024-04-01 18:02:00,SystemResetWarning,0821.9,5.01,000.00,020.7,020.0,000.0,029.3,022.5,25.8,0000.0,0005.41,0003.42,0003.29
2024-04-01 18:03:00,SystemResetWarning,0822.0,5.01,000.00,020.7,019.9,000.0,029.3,022.5,26.4,0000.0,0005.14,0003.39,0003.24
2024-04-01 18:04:00,SystemResetWarning,0822.0,5.01,000.00,020.7,019.9,000.0,029.3,022.5,26.7,0000.0,0005.15,0003.33,0003.19
2024-04-01 18:05:00,SystemResetWarning,0821.9,5.00,000.00,020.7,019.9,000.0,029.3,022.5,26.0,0000.0,0005.19,0003.28,0003.13
2024-04-01 18:06:00,SystemResetWarning,0821.6,5.00,000.00,020.7,019.9,000.0,029.3,022.5,25.6,0000.0,0005.10,0003.22,0003.04
2024-04-01 18:07:00,SystemResetWarning,0821.8,5.00,000.00,020.7,019.8,000.0,029.3,022.4,25.9,0000.0,0004.83,0003.17,0002.95
2024-04-01 18:08:00,SystemResetWarning,0821.6,4.99,000.00,020.7,019.8,000.0,029.3,022.4,26.2,0000.0,0004.59,0003.10,0002.87
2024-04-01 18:09:00,SystemResetWarning,0822.0,4.99,000.00,020.7,019.7,000.0,029.3,022.4,26.0,0000.0,0004.40,0003.01,0002.78
2024-04-01 18:10:00,SystemResetWarning,0821.8,4.99,000.00,020.6,019.7,000.0,029.3,022.4,25.6,0000.0,0004.31,0002.92,0002.70
2024-04-01 18:11:00,SystemResetWarning,0821.9,5.00,000.00,020.6,019.7,000.0,029.2,022.4,25.9,0000.0,0004.29,0002.83,0002.61
2024-04-01 18:12:00,SystemResetWarning,0821.4,5.01,000.00,020.6,019.7,000.0,029.2,022.4,26.1,0000.0,0004.25,0002.79,0002.59
2024-04-01 18:13:00,SystemResetWarning,0821.3,5.00,000.00,020.6,019.7,000.0,029.2,022.4,26.7,0000.0,0004.20,0002.75,0002.56
2024-04-01 18:14:00,SystemResetWarning,0821.3,4.98,000.00,020.6,019.7,000.0,029.2,022.4,26.7,0000.0,0004.12,0002.70,0002.52
2024-04-01 18:15:00,SystemResetWarning,0821.3,5.01,000.00,020.6,019.8,000.0,029.2,022.4,25.9,0000.0,0004.12,0002.73,0002.52
2024-04-01 18:16:00,SystemResetWarning,0821.4,5.01,000.00,020.6,019.8,000.0,029.2,022.4,26.3,0000.0,0004.03,0002.73,0002.50
2024-04-01 18:17:00,SystemResetWarning,0821.3,4.99,000.00,020.6,019.8,000.0,029.2,022.4,26.8,0000.0,0003.33,0002.71,0002.48
2024-04-01 18:18:00,SystemResetWarning,0821.3,5.00,000.00,020.6,019.8,000.0,029.2,022.4,26.9,0000.0,0003.33,0002.71,0002.46
2024-04-01 18:19:00,SystemResetWarning,0821.3,5.00,000.00,020.6,019.8,000.0,029.2,022.4,26.6,0000.0,0003.35,0002.70,0002.43
2024-04-01 18:20:00,SystemResetWarning,0821.3,5.00,000.00,020.6,019.8,000.0,029.2,022.4,26.3,0000.0,0003.74,0002.68,0002.39
2024-04-01 18:21:00,SystemResetWarning,0821.3,4.99,000.00,020.6,019.8,000.0,029.2,022.4,25.5,0000.0,0003.78,0002.65,0002.36
2024-04-01 18:22:00,SystemResetWarning,0821.3,5.00,000.00,020.6,019.8,000.0,029.2,022.4,25.2,0000.0,0003.70,0002.64,0002.34
2024-04-01 18:23:00,SystemResetWarning,0821.2,5.00,000.00,020.6,019.8,000.0,029.2,022.4,25.4,0000.0,0003.71,0002.64,0002.32
2024-04-01 18:24:00,SystemResetWarning,0821.2,5.00,000.00,020.6,019.7,000.0,029.2,022.3,25.9,0000.0,0003.69,0002.63,0002.32
2024-04-01 18:25:00,SystemResetWarning,0821.2,5.00,000.00,020.6,019.7,000.0,029.2,022.3,26.0,0000.0,0003.68,0002.63,0002.31
2024-04-01 18:26:00,SystemResetWarning,0821.3,5.00,000.00,020.6,019.8,000.0,029.2,022.3,25.8,0000.0,0003.60,0002.57,0002.28
2024-04-01 18:27:00,SystemResetWarning,0821.3,5.01,000.00,020.6,019.8,000.0,029.2,022.3,25.3,0000.0,0003.54,0002.53,0002.24
2024-04-01 18:28:00,SystemResetWarning,0821.3,5.00,000.00,020.6,019.7,000.0,029.2,022.3,25.3,0000.0,0003.54,0002.50,0002.21
2024-04-01 18:29:00,SystemResetWarning,0821.3,4.99,000.00,020.6,019.8,000.0,029.1,022.3,25.4,0000.0,0003.54,0002.47,0002.19
2024-04-01 18:30:00,SystemResetWarning,0821.3,4.99,000.00,020.6,019.8,000.0,029.1,022.3,25.0,0000.0,0003.52,0002.44,0002.15
2024-04-01 18:31:00,SystemResetWarning,0821.3,5.00,000.00,020.6,019.7,000.0,029.1,022.3,24.6,0000.0,0003.18,0002.38,0002.12
2024-04-01 18:32:00,SystemResetWarning,0821.3,5.00,000.00,020.6,019.8,000.0,029.1,022.4,24.9,0000.0,0003.22,0002.39,0002.10
2024-04-01 18:33:00,SystemResetWarning,0821.3,5.00,000.00,020.6,019.8,000.0,029.1,022.4,25.2,0000.0,0003.25,0002.37,0002.07
2024-04-01 18:34:00,SystemResetWarning,0821.3,5.00,000.00,020.6,019.8,000.0,029.1,022.4,25.1,0000.0,0003.79,0002.34,0002.05
2024-04-01 18:35:00,SystemResetWarning,0821.3,5.00,000.00,020.6,019.8,000.0,029.1,022.4,26.0,0000.0,0004.42,0002.30,0002.02
2024-04-01 18:36:00,SystemResetWarning,0821.3,5.00,000.00,020.6,019.8,000.0,029.1,022.4,25.5,0000.0,0004.41,0002.28,0002.00
2024-04-01 18:37:00,SystemResetWarning,0821.3,5.00,000.00,020.6,019.8,000.0,029.1,022.4,24.3,0000.0,0004.45,0002.30,0002.02
2024-04-01 18:38:00,SystemResetWarning,0821.3,5.01,000.00,020.6,019.8,000.0,029.1,022.4,24.1,0000.0,0004.48,0002.34,0002.06
2024-04-01 18:39:00,SystemResetWarning,0821.3,5.00,000.00,020.6,019.9,000.0,029.1,022.4,24.6,0000.0,0004.53,0002.39,0002.11
2024-04-01 18:40:00,SystemResetWarning,0821.4,5.00,000.00,020.6,019.9,000.0,029.1,022.4,26.0,0000.0,0004.51,0002.39,0002.12
2024-04-01 18:41:00,SystemResetWarning,0821.3,5.00,000.00,020.6,019.9,000.0,029.1,022.4,25.7,0000.0,0004.44,0002.37,0002.12
2024-04-01 18:42:00,SystemResetWarning,0821.3,5.00,000.00,020.6,019.9,000.0,029.1,022.4,25.9,0000.0,0004.47,0002.38,0002.12
2024-04-01 18:43:00,SystemResetWarning,0821.3,5.00,000.00,020.6,019.9,000.0,029.1,022.4,25.0,0000.0,0004.26,0002.36,0002.11
2024-04-01 18:44:00,SystemResetWarning,0821.3,5.00,000.00,020.6,019.9,000.0,029.1,022.4,25.5,0000.0,0004.52,0002.37,0002.11
2024-04-01 18:45:00,SystemResetWarning,0821.3,5.00,000.00,020.6,019.9,000.0,029.1,022.4,25.4,0000.0,0004.34,0002.38,0002.12
2024-04-01 18:46:00,SystemResetWarning,0821.3,5.00,000.00,020.6,019.9,000.0,029.1,022.4,24.8,0000.0,0003.76,0002.44,0002.17
2024-04-01 18:47:00,SystemResetWarning,0821.2,5.00,000.00,020.6,019.9,000.0,029.1,022.4,25.5,0000.0,0003.86,0002.50,0002.21
2024-04-01 18:48:00,SystemResetWarning,0821.3,4.99,000.00,020.6,019.9,000.0,029.1,022.5,24.9,0000.0,0003.92,0002.55,0002.24
2024-04-01 18:49:00,SystemResetWarning,0821.1,5.00,000.00,020.6,019.9,000.0,029.2,022.4,25.0,0000.0,0003.88,0002.54,0002.23
2024-04-01 18:50:00,SystemResetWarning,0821.0,5.00,000.00,020.6,019.9,000.0,029.2,022.4,25.1,0000.0,0003.91,0002.56,0002.26
2024-04-01 18:51:00,SystemResetWarning,0821.2,5.00,000.00,020.6,019.9,000.0,029.2,022.4,25.2,0000.0,0004.04,0002.67,0002.34
2024-04-01 18:52:00,SystemResetWarning,0820.9,4.99,000.00,020.6,019.9,000.0,029.2,022.5,26.0,0000.0,0004.14,0002.76,0002.42
2024-04-01 18:53:00,SystemResetWarning,0821.0,5.00,000.00,020.7,020.0,000.0,029.2,022.5,25.2,0000.0,0004.19,0002.84,0002.51
2024-04-01 18:54:00,SystemResetWarning,0821.1,4.99,000.00,020.7,020.0,000.0,029.2,022.5,26.0,0000.0,0004.25,0002.91,0002.58
2024-04-01 18:55:00,SystemResetWarning,0821.0,5.00,000.00,020.7,020.0,000.0,029.2,022.5,25.9,0000.0,0004.77,0003.07,0002.72
2024-04-01 18:56:00,SystemResetWarning,0821.1,5.01,000.00,020.7,020.1,000.0,029.2,022.5,25.2,0000.0,0004.82,0003.19,0002.90
2024-04-01 18:57:00,SystemResetWarning,0821.1,5.01,000.00,020.7,020.1,000.0,029.2,022.5,24.8,0000.0,0004.97,0003.29,0003.08
2024-04-01 18:58:00,SystemResetWarning,0821.5,5.00,000.00,020.7,020.1,000.0,029.2,022.6,25.1,0000.0,0005.15,0003.39,0003.18
2024-04-01 18:59:00,SystemResetWarning,0821.4,5.00,000.00,020.7,020.2,000.0,029.2,022.6,25.2,0000.0,0005.23,0003.46,0003.27
